When you browse on this site, cookies collect data to enhance your experience and personalize the content and advertising you see.
Visit our Privacy Policy to learn more. By continuing to use the site, you agree to this use of cookies and data.
  • In Austria
  • List of Countries
  • For 7 days
  • Water Temperature
  • Satellite Maps
  • Weather Map
  • News
  • Weather Widgets
  • user-avatar
    Login

    Hourly Weather Sidi Bu-l-Abbas

    Today, 19 July, Friday

    Time Temperature Precipitation Wind Pressure Humidity
    00:00 +24°C° 0 mm 0 mps 719 mmHg 55%
    01:00 +24°C° 0 mm 0 mps 718 mmHg 57%
    02:00 +23°C° 0 mm 0 mps 718 mmHg 58%
    03:00 +23°C° 0 mm 0 mps 718 mmHg 59%
    04:00 +23°C° 0 mm 0 mps 718 mmHg 60%
    05:00 +25°C° 0 mm 1 mps 718 mmHg 61%
    06:00 +25°C° 0 mm 1 mps 718 mmHg 61%
    07:00 +27°C° 0 mm 1 mps 719 mmHg 54%
    08:00 +30°C° 0 mm 2 mps 719 mmHg 46%
    09:00 +32°C° 0 mm 2 mps 719 mmHg 39%
    10:00 +36°C° 0 mm 3 mps 719 mmHg 32%
    11:00 +40°C° 0 mm 4 mps 719 mmHg 24%
    12:00 +43°C° 0 mm 4 mps 719 mmHg 17%
    13:00 +43°C° 0 mm 5 mps 719 mmHg 18%
    14:00 +43°C° 0 mm 5 mps 718 mmHg 20%
    15:00 +44°C° 0 mm 6 mps 717 mmHg 21%
    16:00 +41°C° 0 mm 5 mps 717 mmHg 24%
    17:00 +39°C° 0 mm 5 mps 717 mmHg 27%
    18:00 +37°C° 0 mm 5 mps 717 mmHg 30%
    19:00 +36°C° 0.1 mm 6 mps 717 mmHg 28%
    20:00 +36°C° 0.1 mm 7 mps 717 mmHg 26%
    21:00 +37°C° 0.1 mm 8 mps 718 mmHg 25%
    22:00 +36°C° 0 mm 6 mps 718 mmHg 25%
    23:00 +35°C° 0 mm 5 mps 718 mmHg 26%

    Tomorrow, 20 July, Saturday

    Time Temperature Precipitation Wind Pressure Humidity
    00:00 +35°C° 0 mm 3 mps 718 mmHg 27%
    01:00 +32°C° 0 mm 2 mps 718 mmHg 35%
    02:00 +30°C° 0 mm 2 mps 717 mmHg 43%
    03:00 +28°C° 0 mm 1 mps 717 mmHg 51%
    04:00 +29°C° 0 mm 1 mps 717 mmHg 50%
    05:00 +29°C° 0 mm 1 mps 717 mmHg 49%
    06:00 +29°C° 0 mm 1 mps 718 mmHg 48%
    07:00 +31°C° 0 mm 1 mps 718 mmHg 41%
    08:00 +35°C° 0 mm 2 mps 719 mmHg 34%
    09:00 +37°C° 0 mm 2 mps 719 mmHg 27%
    10:00 +38°C° 0 mm 3 mps 719 mmHg 26%
    11:00 +41°C° 0 mm 4 mps 720 mmHg 25%
    12:00 +42°C° 0 mm 4 mps 720 mmHg 24%
    13:00 +40°C° 0.1 mm 5 mps 720 mmHg 23%
    14:00 +39°C° 0.1 mm 5 mps 719 mmHg 23%
    15:00 +38°C° 0.1 mm 6 mps 719 mmHg 22%
    16:00 +38°C° 0.1 mm 7 mps 719 mmHg 24%
    17:00 +37°C° 0.1 mm 8 mps 720 mmHg 25%
    18:00 +37°C° 0.1 mm 9 mps 720 mmHg 27%
    19:00 +37°C° 0.1 mm 10 mps 721 mmHg 25%
    20:00 +37°C° 0.1 mm 10 mps 721 mmHg 24%
    21:00 +37°C° 0.1 mm 10 mps 722 mmHg 23%
    22:00 +35°C° 0 mm 9 mps 721 mmHg 26%
    23:00 +35°C° 0 mm 7 mps 721 mmHg 29%

    Day after tomorrow, 21 July, Sunday

    Time Temperature Precipitation Wind Pressure Humidity
    00:00 +34°C° 0 mm 5 mps 721 mmHg 32%
    01:00 +33°C° 0.1 mm 5 mps 721 mmHg 35%
    02:00 +32°C° 0.1 mm 4 mps 721 mmHg 38%
    03:00 +31°C° 0.1 mm 3 mps 720 mmHg 40%
    04:00 +30°C° 0 mm 2 mps 720 mmHg 42%
    05:00 +30°C° 0 mm 2 mps 720 mmHg 43%
    06:00 +30°C° 0 mm 2 mps 721 mmHg 45%
    07:00 +31°C° 0 mm 2 mps 721 mmHg 40%
    08:00 +34°C° 0 mm 2 mps 722 mmHg 34%
    09:00 +36°C° 0 mm 2 mps 722 mmHg 29%
    10:00 +38°C° 0 mm 3 mps 722 mmHg 25%
    11:00 +39°C° 0 mm 3 mps 722 mmHg 22%
    12:00 +42°C° 0 mm 4 mps 722 mmHg 19%
    13:00 +41°C° 0.2 mm 5 mps 722 mmHg 22%
    14:00 +40°C° 0.2 mm 6 mps 721 mmHg 25%
    15:00 +39°C° 0.2 mm 7 mps 721 mmHg 28%
    16:00 +39°C° 0.2 mm 6 mps 721 mmHg 26%
    17:00 +39°C° 0.2 mm 6 mps 722 mmHg 24%
    18:00 +39°C° 0.2 mm 5 mps 722 mmHg 22%
    19:00 +36°C° 0 mm 4 mps 722 mmHg 27%
    20:00 +35°C° 0 mm 4 mps 723 mmHg 33%
    21:00 +33°C° 0 mm 3 mps 723 mmHg 39%
    22:00 +31°C° 0 mm 2 mps 722 mmHg 39%
    23:00 +31°C° 0 mm 2 mps 722 mmHg 40%

    22 July, Monday

    Time Temperature Precipitation Wind Pressure Humidity
    00:00 +30°C° 0 mm 1 mps 722 mmHg 41%
    01:00 +30°C° 0 mm 1 mps 722 mmHg 44%
    02:00 +29°C° 0 mm 1 mps 721 mmHg 46%
    03:00 +29°C° 0 mm 1 mps 721 mmHg 49%
    04:00 +28°C° 0 mm 1 mps 721 mmHg 51%
    05:00 +28°C° 0 mm 1 mps 721 mmHg 53%
    06:00 +28°C° 0 mm 1 mps 721 mmHg 55%
    07:00 +30°C° 0 mm 1 mps 722 mmHg 46%
    08:00 +33°C° 0 mm 1 mps 722 mmHg 38%
    09:00 +35°C° 0 mm 1 mps 722 mmHg 29%
    10:00 +37°C° 0 mm 2 mps 722 mmHg 27%
    11:00 +38°C° 0 mm 3 mps 722 mmHg 25%
    12:00 +40°C° 0 mm 3 mps 722 mmHg 23%
    13:00 +41°C° 0 mm 4 mps 722 mmHg 22%
    14:00 +42°C° 0 mm 4 mps 721 mmHg 22%
    15:00 +42°C° 0 mm 4 mps 721 mmHg 22%
    16:00 +41°C° 0 mm 4 mps 721 mmHg 25%
    17:00 +39°C° 0 mm 5 mps 721 mmHg 29%
    18:00 +37°C° 0 mm 5 mps 720 mmHg 33%
    19:00 +36°C° 0 mm 4 mps 721 mmHg 34%
    20:00 +35°C° 0 mm 3 mps 721 mmHg 36%
    21:00 +34°C° 0 mm 2 mps 721 mmHg 38%
    22:00 +32°C° 0 mm 2 mps 721 mmHg 42%
    23:00 +31°C° 0 mm 2 mps 721 mmHg 46%

    23 July, Tuesday

    Time Temperature Precipitation Wind Pressure Humidity
    00:00 +30°C° 0 mm 2 mps 720 mmHg 50%
    01:00 +30°C° 0 mm 2 mps 720 mmHg 50%
    02:00 +29°C° 0 mm 2 mps 720 mmHg 50%
    03:00 +29°C° 0 mm 2 mps 719 mmHg 50%
    04:00 +28°C° 0 mm 1 mps 719 mmHg 55%
    05:00 +28°C° 0 mm 1 mps 719 mmHg 60%
    06:00 +27°C° 0 mm 1 mps 719 mmHg 65%
    07:00 +29°C° 0 mm 1 mps 720 mmHg 54%
    08:00 +32°C° 0 mm 1 mps 720 mmHg 44%
    09:00 +34°C° 0 mm 1 mps 721 mmHg 34%
    10:00 +36°C° 0 mm 2 mps 721 mmHg 31%
    11:00 +38°C° 0 mm 3 mps 720 mmHg 29%
    12:00 +39°C° 0 mm 3 mps 720 mmHg 26%
    13:00 +40°C° 0 mm 4 mps 720 mmHg 27%
    14:00 +40°C° 0 mm 4 mps 720 mmHg 28%
    15:00 +40°C° 0 mm 5 mps 719 mmHg 29%
    16:00 +39°C° 0.1 mm 5 mps 719 mmHg 28%
    17:00 +37°C° 0.1 mm 5 mps 719 mmHg 27%
    18:00 +37°C° 0.1 mm 5 mps 719 mmHg 27%
    19:00 +36°C° 0 mm 4 mps 719 mmHg 27%
    20:00 +35°C° 0 mm 3 mps 719 mmHg 28%
    21:00 +34°C° 0 mm 2 mps 720 mmHg 29%
    22:00 +31°C° 0 mm 2 mps 719 mmHg 41%
    23:00 +29°C° 0 mm 2 mps 719 mmHg 54%

    24 July, Wednesday

    Time Temperature Precipitation Wind Pressure Humidity
    00:00 +27°C° 0 mm 3 mps 719 mmHg 67%
    01:00 +27°C° 0 mm 2 mps 719 mmHg 65%
    02:00 +27°C° 0 mm 1 mps 718 mmHg 63%
    03:00 +27°C° 0 mm 1 mps 718 mmHg 61%
    04:00 +28°C° 0 mm 1 mps 718 mmHg 59%
    05:00 +26°C° 0 mm 0 mps 718 mmHg 57%
    06:00 +26°C° 0 mm 0 mps 718 mmHg 55%
    07:00 +30°C° 0 mm 1 mps 718 mmHg 49%
    08:00 +31°C° 0 mm 1 mps 719 mmHg 43%
    09:00 +34°C° 0 mm 2 mps 719 mmHg 37%
    10:00 +35°C° 0 mm 2 mps 719 mmHg 35%
    11:00 +37°C° 0 mm 2 mps 719 mmHg 32%
    12:00 +38°C° 0 mm 3 mps 719 mmHg 29%
    13:00 +38°C° 0 mm 4 mps 718 mmHg 30%
    14:00 +38°C° 0 mm 4 mps 718 mmHg 30%
    15:00 +40°C° 0 mm 5 mps 718 mmHg 30%
    16:00 +37°C° 0 mm 5 mps 717 mmHg 34%
    17:00 +36°C° 0 mm 4 mps 717 mmHg 38%
    18:00 +34°C° 0 mm 3 mps 717 mmHg 42%
    19:00 +32°C° 0 mm 2 mps 717 mmHg 48%
    20:00 +31°C° 0 mm 1 mps 718 mmHg 53%
    21:00 +29°C° 0 mm 1 mps 718 mmHg 59%
    22:00 +29°C° 0 mm 1 mps 718 mmHg 59%
    23:00 +29°C° 0 mm 1 mps 717 mmHg 60%
    Show more